Location: Alladorf
(49.9620°N, 11.3790°E)
Time: 19:11:38
(UTC+00:00)

Cosmos 1048 Rocket - Pass Details

Date: 29 November 2020
Orbit: 744 x 791 km, 74.0° (Epoch: 25 January)

Event Time Altitude Azimuth Distance (km) Brightness Sun altitude
Exits shadow 05:20:14 - 339° (NNW) 2,754 6.5 -13.7°
Reaches altitude 10° 05:21:19 10° 340° (NNW) 2,334 6.2 -13.5°
Maximum altitude 05:26:36 67° 64° (ENE) 835 4.4 -12.7°
Drops below altitude 10° 05:31:46 10° 147° (SSE) 2,287 7.3 -11.9°
Sets 05:34:08 0° 150° (SSE) 3,201 8.1 -11.5°
